Regional Weather Roundup
Issued by NWS

Home | Current Version | Previous Version | Graphics & Text | Print | Product List | Glossary On
Versions: 1 2 3 4 5 6 7 8 9 10 11 12 13 14 15 16 17 18 19 20 21 22 23 24 25 26 27 28 29 30 31 32 33 34 35 36 37 38 39 40 41 42 43 44 45 46 47 48 49 50
000
ASUS45 KBOU 251507
RWRCO

WEATHER ROUNDUP FOR COLORADO
NATIONAL WEATHER SERVICE DENVER/BOULDER CO
800 AM MST TUE NOV 25 2014

NOTE: "FAIR" INDICATES FEW OR NO CLOUDS BELOW 12000 FEET WITH NO
SIGNIFICANT WEATHER AND/OR OBSTRUCTIONS TO VISIBILITY.

COZ001>005-013-030-031-251600-
...NORTHWEST COLORADO...

CITY           SKY/WX    TMP DP  RH WIND       PRES   REMARKS
CRAIG          CLOUDY    20  14  77 E10       30.24F WCI   9
HAYDEN         CLOUDY    18  12  79 E9        30.23F VSB 1   WCI   6
MEEKER         CLOUDY    21  14  74 NE6       30.27F WCI  13
MOUNT WERNER   NOT AVBL
STEAMBOAT SPGS CLOUDY    13  11  90 CALM      30.24S VSB 3/4
WALDEN         CLOUDY    21  10  63 SW16G22   30.09F WCI   7
$$

COZ006>008-011-251600-
...WEST CENTRAL VALLEYS...

CITY           SKY/WX    TMP DP  RH WIND       PRES   REMARKS
GRAND JUNCTION CLOUDY    24  15  68 E7        30.38S WCI  16
MONTROSE       CLOUDY    22  13  68 CALM      30.39F
EAGLE          FLURRIES  16  12  86 CALM      30.34S
RIFLE          CLOUDY    18  14  84 CALM      30.38S
DELTA          CLOUDY    24  18  77 CALM      30.42R
NUCLA          CLOUDY    23  14  68 CALM      30.45R
$$

COZ017>023-064>068-251600-
...SOUTHWEST COLORADO...

CITY           SKY/WX    TMP DP  RH WIND       PRES   REMARKS
DURANGO        PTCLDY    13   8  81 CALM      30.37R
CORTEZ         CLOUDY    21  14  74 NE5       30.42R WCI  15
PAGOSA SPRINGS PTCLDY    14   4  65 CALM      30.34R
TELLURIDE      CLOUDY    14   4  64 E3        30.37R
WOLF CREEK PAS   N/A      3  -6  66 MISG      30.22R
$$

COZ009-010-012-014-032>034-037-058>063-251600-
...CENTRAL COLORADO...

CITY           SKY/WX    TMP DP  RH WIND       PRES   REMARKS
ASPEN          CLOUDY    16   9  74 CALM      30.28S
BUENA VISTA    MOCLDY    26   4  39 W7G29     30.12F WCI  18
COPPER MTN     CLOUDY     9   1  72 W23G30    30.09R WCI -12
BERTHOUD PASS  NOT AVBL
COTTONWOOD PAS MOCLDY    21   5  49 NW22G39   30.01F WCI   5
GUNNISON       PTCLDY     1  -6  71 CALM      30.37R
KREMMLING      FLURRIES  21  10  63 W12G18    30.22R WCI   9
LEADVILLE      CLOUDY    12   3  67 NE12G18   30.16F WCI  -2
MONARCH PASS     N/A      3   0  85 MISG      30.14R
SALIDA         MOCLDY    26   4  39 NW5       30.21F WCI  20
SUNLIGHT       CLOUDY   N/A N/A N/A CALM      30.21R
WILKERSON PASS NOT AVBL
$$

COZ069>075-251600-
...SAN LUIS VALLEY/SANGRE DE CRISTO MOUNTAINS...

CITY           SKY/WX    TMP DP  RH WIND       PRES   REMARKS
ALAMOSA        PTSUNNY    9   1  70 CALM      30.29R
LA VETA PASS   CLOUDY    12   1  62 MISG      30.08S
SAGUACHE       NOT AVBL
$$

COZ035-036-038>040-251600-
...NORTHERN COLORADO FRONT RANGE...

CITY           SKY/WX    TMP DP  RH WIND       PRES   REMARKS
DENVER INTL AP CLOUDY    33   9  36 SW15      29.96F WCI  23
DMNS CITY PARK   N/A     32   6  33 E1G8      29.98F
AURORA         MOCLDY    30   9  40 SW10      29.99F WCI  21
FRONT RANGE AP NOT AVBL
ERIE MUNI ARPT CLOUDY    36  10  33 SW10      29.95F
BOULDER MUN AP CLOUDY    36  10  35 SW5G22    29.93F
CENTENNIAL     CLOUDY    32   8  36 S13       29.99F WCI  22
BROOMFIELD     MOCLDY    36   9  32 W31G43    29.98F
FORT COLLINS   CLOUDY    21  16  79 E8        29.92F WCI  12
LONGMONT       CLOUDY    36  14  40 SE9       29.94F
$$

COZ041-046-047-076>085-087-088-251600-
...PIKES PEAK/PALMER DIVIDE AND SOUTHERN FOOTHILLS...

CITY           SKY/WX    TMP DP  RH WIND       PRES   REMARKS
COLO. SPRINGS  CLOUDY    25  13  60 E3        30.05F
A. F. ACADEMY  CLOUDY    33   6  32 W25G38    29.99F WCI  19
ELLICOTT       NOT AVBL
FALCON         NOT AVBL
FORT CARSON    CLOUDY    23  13  68 NE2       30.05F
LIMON          CLOUDY    21  14  74 CALM      30.03F
MONUMENT HILL  CLOUDY    27   9  46 SW12      29.99F WCI  16
TRINIDAD       PTSUNNY   22   9  57 W8        30.15R WCI  12
$$

COZ042>045-048>051-090-091-251600-
...NORTHEAST COLORADO...

CITY           SKY/WX    TMP DP  RH WIND       PRES   REMARKS
GREELEY ARPT   CLOUDY    19  12  73 E5        29.96F WCI  13
AKRON          CLOUDY    30   9  41 SW15      29.97F WCI  19
BURLINGTON     MOSUNNY   30  17  58 SW18      30.07F WCI  18
WRAY           PTSUNNY   26  19  74 SW6       30.04F WCI  19
STERLING       CLOUDY    27  19  74 SW9       29.99F WCI  17
HOLYOKE        PTSUNNY   28  19  69 SW12      30.00F WCI  18
FORT MORGAN    CLOUDY    23  15  71 CALM      29.98F
$$

COZ086-089-092>099-251600-
...SOUTHEAST COLORADO...

CITY           SKY/WX    TMP DP  RH WIND       PRES   REMARKS
PUEBLO         CLOUDY    20  16  84 NE3       30.10F
LA JUNTA       PTSUNNY   28  15  58 SW13      30.13F WCI  17
LAMAR          SUNNY     25  21  85 SW5       30.14F WCI  19
SPRINGFIELD      N/A     28  19  69 SW12      30.17F WCI  18
$$



USA.gov is the U.S. government's official web portal to all federal, state and local government web resources and services.